RH
64 52 45 47 60 69 77 75 70 66 53 43 38 33 33 34 34 36 41 47 54 55 52 49 39 33 28 25 24 22 21 24 27 28 30 32 30 28 27 27 28 29 30 32 34 36 36 36 34 33 31 30 28 27 25 24 25 27 31 34 32 29 29 27 24 20 19 21 23 22 21 20 19 19 18 18 17 17 17 17 17 16 16 16 17
60 47 45 60 72 73 79 78 74 75 67 54 44 39 38 38 38 41 46 50 53 52 53 51 42 34 28 26 25 23 21 22 27 29 30 33 33 30 29 29 29 30 31 32 34 34 34 33 31 30 30 29 28 27 26 24 27 30 33 38 37 33 31 30 29 27 23 21 22 23 23 21 19 18 18 17 17 17 17 17 16 16 17 18 19
51 42 46 73 87 84 88 84 73 69 70 63 51 48 47 46 49 54 55 55 53 50 53 51 43 35 28 26 26 24 22 22 25 30 31 34 37 34 33 33 32 32 33 33 33 33 32 31 30 29 29 30 29 28 26 25 29 35 37 39 38 36 34 33 32 31 30 27 24 22 23 22 20 19 18 17 17 17 17 17 16 17 20 22 23
51 48 48 65 81 85 93 93 82 67 65 67 57 54 56 57 61 64 64 60 54 50 51 50 43 35 29 27 27 25 22 22 23 29 33 35 37 38 38 37 34 33 33 33 33 34 34 34 32 31 30 30 30 29 27 26 32 39 39 37 37 36 35 35 34 33 32 32 30 27 23 22 21 20 18 17 17 18 17 16 17 19 22 24 25
70 68 55 48 57 77 93 94 94 82 72 74 64 59 64 68 71 70 67 63 56 51 48 46 42 35 29 27 27 27 25 23 22 27 34 37 38 40 41 40 38 35 35 35 35 37 37 36 34 32 31 30 31 30 28 28 36 44 44 43 44 43 39 37 36 35 34 33 34 33 30 26 22 20 19 19 18 18 18 17 17 20 23 25 25
89 86 75 57 48 72 84 74 91 100 88 83 71 62 70 75 78 79 73 67 59 52 45 40 39 35 30 28 28 29 29 25 23 25 32 37 39 40 41 43 41 39 39 39 41 42 41 38 35 33 32 32 32 31 30 31 37 45 49 51 50 48 43 39 38 39 38 35 34 35 35 34 30 25 21 20 20 20 19 18 18 19 22 24 25
100 99 98 79 49 63 71 54 73 100 100 93 85 78 78 80 85 89 83 73 63 54 46 40 38 35 30 28 29 31 31 26 23 23 28 36 39 41 42 44 45 44 44 46 48 48 45 40 37 35 34 34 34 32 32 32 35 44 53 54 52 51 49 44 41 42 43 41 37 35 35 36 37 35 30 25 21 20 20 20 20 20 21 22 24
103 95 91 80 53 54 62 51 55 86 104 98 99 99 93 90 94 96 89 78 67 60 52 43 38 35 32 29 30 33 31 25 22 23 26 33 39 42 43 45 47 47 49 53 55 54 49 43 40 38 37 36 35 36 37 37 40 50 56 52 48 48 51 52 47 44 45 46 44 41 38 37 37 38 38 36 31 26 24 22 22 21 21 22 22
102 92 86 86 78 66 59 56 50 74 104 101 101 104 102 99 100 98 90 82 71 65 59 48 41 35 33 30 32 35 31 24 21 22 24 31 37 41 44 46 48 50 53 57 60 60 54 47 43 40 39 40 41 46 52 51 52 59 54 44 38 35 39 48 53 50 48 48 48 47 46 44 42 41 40 40 40 38 36 34 32 30 29 29 29
98 95 98 99 100 92 72 65 54 71 102 101 100 103 103 100 99 98 90 87 81 73 63 52 45 36 34 32 34 37 31 23 22 23 24 28 34 39 43 46 49 52 56 60 63 63 60 52 46 45 47 49 50 61 73 67 61 58 48 39 34 30 31 34 45 53 54 54 52 51 49 49 50 49 47 44 43 45 45 45 45 46 47 48 50
92 84 97 101 102 103 86 69 56 75 106 101 97 101 103 100 96 95 89 87 90 85 70 57 47 38 37 35 38 39 30 23 22 22 24 28 32 37 42 46 49 53 57 60 64 65 63 56 52 56 60 58 54 62 73 70 64 55 45 39 33 32 32 29 33 42 49 51 52 52 50 49 50 53 55 55 52 49 49 50 52 55 58 60 60
96 83 94 102 98 97 81 64 56 70 95 99 96 97 100 99 95 95 89 85 90 91 78 63 52 41 38 39 43 41 29 24 23 22 24 28 31 36 42 47 50 52 57 61 64 66 65 60 57 65 71 65 57 55 57 56 54 48 45 45 39 34 32 31 32 35 38 38 40 43 47 48 48 51 54 58 58 56 54 52 51 52 53 53 52
101 91 93 100 92 84 70 53 54 58 68 90 95 91 96 99 100 101 94 88 91 93 83 70 59 48 39 43 48 40 29 25 22 22 24 26 30 35 41 47 51 52 55 60 64 65 65 64 61 67 74 71 63 57 54 50 46 44 47 49 44 38 35 37 38 37 38 37 37 36 40 44 47 51 52 52 52 52 47 43 43 44 44 46 48
96 94 95 96 90 84 78 61 59 56 61 86 89 85 95 103 105 105 99 93 95 95 87 77 69 58 45 46 52 43 31 26 22 22 23 25 28 33 40 45 51 54 55 58 62 64 63 64 65 66 71 72 67 61 58 55 49 46 47 48 48 43 40 46 50 48 43 40 40 39 39 39 41 46 50 49 45 39 34 39 46 42 39 41 41
83 91 92 86 93 95 93 83 70 59 69 91 85 77 90 104 104 105 105 97 97 94 87 81 76 68 56 52 55 49 35 27 23 23 23 23 26 30 37 43 49 53 55 58 60 63 63 64 67 67 69 71 69 64 59 58 55 48 44 46 50 48 44 50 59 59 53 43 39 39 40 39 37 37 39 41 40 36 35 43 44 33 28 28 26
81 84 82 81 98 101 100 101 86 66 76 91 80 71 84 102 103 107 108 99 100 96 87 83 81 80 70 60 60 57 42 31 24 23 24 23 25 28 34 41 47 50 52 56 59 61 63 64 66 67 70 71 70 67 62 58 55 48 44 44 50 53 47 49 57 59 57 49 40 37 38 39 38 36 33 31 29 28 29 30 26 21 20 20 19
94 88 86 92 97 98 100 104 96 77 81 89 78 73 86 102 105 111 107 101 105 101 91 85 91 96 82 67 66 64 49 35 26 23 25 24 25 27 32 40 45 49 50 54 57 60 62 64 65 66 69 70 70 70 65 58 51 45 44 48 54 55 52 55 58 57 57 52 43 38 37 37 37 38 37 34 29 22 18 17 17 17 18 17 17
101 98 98 100 95 98 100 99 100 90 88 90 80 79 93 103 106 111 105 102 106 102 95 90 99 104 89 75 73 68 53 40 28 24 26 25 26 26 29 36 43 49 52 54 56 59 62 64 66 66 67 68 70 70 66 57 50 47 48 55 58 56 59 63 60 57 57 52 45 40 39 38 38 40 40 39 37 30 20 15 15 15 16 16 15
100 102 103 100 96 101 101 99 102 99 96 92 80 77 92 102 106 108 102 102 104 101 99 98 102 100 92 85 82 72 54 43 32 25 27 27 28 26 27 31 38 46 53 56 56 59 62 65 67 67 68 69 70 70 65 57 54 59 59 58 58 58 64 63 57 58 57 52 46 43 43 42 42 43 42 41 39 34 23 17 16 15 15 14 14
99 100 103 100 98 100 101 100 100 100 98 89 77 74 85 96 104 104 101 102 102 102 101 101 102 99 93 86 86 78 60 49 37 28 28 30 32 29 27 29 35 43 51 57 59 61 62 66 68 68 69 70 71 68 63 58 60 69 65 55 52 55 60 58 57 60 57 52 47 46 47 46 45 47 45 41 38 32 21 16 16 15 15 15 17
100 99 102 102 99 99 101 101 100 99 95 85 75 76 85 93 101 101 101 103 103 105 101 100 101 101 98 90 87 83 73 64 49 38 33 34 36 32 29 28 33 40 47 56 61 62 63 66 67 68 70 71 72 67 64 62 64 71 64 49 45 50 57 59 61 60 57 51 47 47 47 48 49 50 46 40 35 26 17 15 15 16 17 19 25
101 100 100 102 100 99 102 101 100 97 93 85 79 84 92 95 100 100 100 103 106 106 97 97 102 101 101 98 90 81 80 77 64 52 42 39 38 33 30 29 33 38 43 52 60 63 64 66 67 68 70 72 72 67 65 65 65 67 60 50 49 54 57 60 62 61 58 51 48 48 49 53 53 52 49 42 35 23 14 15 16 17 21 27 35
101 99 98 101 100 100 102 101 97 89 84 85 87 94 99 99 100 100 102 103 107 105 92 93 102 102 101 101 93 80 78 81 74 61 49 42 40 36 31 30 34 38 43 48 55 61 62 65 66 68 71 71 71 67 67 68 65 60 56 56 59 61 60 60 63 63 57 51 51 53 56 61 59 56 52 46 40 27 16 17 17 20 28 37 47
100 98 97 100 100 99 97 92 85 75 78 86 92 100 103 104 103 103 104 103 105 101 91 90 98 102 100 101 95 80 77 83 79 70 58 47 43 41 32 31 35 39 44 46 50 56 59 64 66 69 71 71 70 69 70 70 64 58 59 62 64 64 66 68 68 64 58 55 57 61 65 67 63 58 53 50 45 30 18 18 20 23 32 43 53
95 94 93 94 94 89 83 76 69 69 82 84 88 100 104 107 109 107 104 101 99 94 88 86 94 99 98 102 96 81 82 86 81 75 66 53 49 47 37 32 36 41 45 46 47 52 57 62 66 69 71 73 74 73 74 71 65 63 64 63 64 68 73 77 74 69 65 64 66 69 71 68 62 57 54 51 45 31 20 19 22 25 32 41 50
80 77 76 81 85 83 82 76 66 72 84 76 82 100 103 108 109 105 101 96 94 92 88 84 85 89 93 98 89 81 90 92 80 71 66 59 55 53 45 35 35 42 46 48 48 51 57 61 65 70 74 77 76 76 77 74 70 71 68 64 69 74 78 81 77 74 73 75 78 78 72 63 56 53 51 50 44 31 20 19 22 27 33 38 45
81 78 73 74 80 83 85 80 68 71 77 68 80 99 102 107 104 99 94 85 83 86 87 85 79 78 85 91 85 84 95 97 83 67 61 58 54 55 53 42 36 41 47 49 50 52 58 62 66 72 77 79 78 79 79 76 75 76 72 71 76 78 81 83 80 80 82 85 85 77 66 56 50 46 44 46 42 30 20 19 22 28 34 38 42
92 96 92 81 76 73 73 76 71 67 66 66 81 96 101 102 98 94 89 79 77 78 80 83 81 79 84 86 85 90 98 100 89 71 61 57 53 54 56 50 40 41 48 51 52 54 59 63 67 74 78 80 82 82 81 78 79 81 79 77 78 79 80 82 83 83 84 86 80 68 60 53 47 41 37 40 39 28 21 21 24 29 34 37 39
98 104 105 95 82 67 60 68 73 69 66 70 78 87 93 94 92 91 84 77 77 77 76 79 85 88 90 89 88 93 101 101 90 76 69 63 59 60 63 59 47 45 49 53 55 55 57 61 64 72 78 83 87 86 83 80 83 87 83 78 77 80 82 84 84 82 83 82 72 63 58 51 45 37 31 33 34 26 22 24 26 31 35 38 38
105 107 107 102 95 77 63 65 73 79 79 79 82 83 84 84 83 83 79 77 80 80 76 78 88 92 93 94 92 92 98 100 93 83 76 69 66 70 72 68 58 51 50 56 59 56 57 58 62 72 81 87 90 88 86 86 89 91 83 78 81 85 85 85 82 79 82 78 66 59 53 45 38 31 27 28 29 24 23 26 29 33 38 41 42
108 109 103 97 98 85 72 69 73 87 92 91 97 94 89 84 78 78 79 81 84 85 84 88 95 97 97 95 91 89 94 99 98 92 82 74 72 75 78 75 67 56 53 58 60 60 60 59 66 81 88 87 88 88 88 88 90 90 83 81 84 85 84 82 78 77 79 72 62 55 47 38 31 27 25 24 24 24 25 29 32 37 41 44 44
104 104 96 87 91 83 74 79 83 95 100 98 105 103 95 91 84 81 81 81 87 92 95 100 100 98 96 92 87 89 95 96 97 96 85 77 76 75 77 77 69 57 55 60 64 70 73 72 80 89 87 83 85 88 87 86 88 88 83 81 82 81 81 79 77 77 72 65 58 51 41 33 27 25 23 23 24 25 28 32 36 40 43 43 42
89 89 85 73 77 76 72 84 95 101 104 102 106 103 94 93 90 83 77 78 86 95 99 101 100 95 92 91 89 91 96 92 93 96 85 81 77 68 67 67 61 56 57 60 67 78 86 89 92 89 83 81 86 88 87 87 88 86 81 79 80 79 80 78 76 73 65 59 54 46 36 28 24 24 23 23 26 28 31 34 38 41 42 41 40
80 82 82 70 71 77 76 89 103 104 104 104 104 100 91 90 90 81 75 75 82 93 97 96 95 92 90 92 90 90 94 88 89 96 89 86 78 63 61 57 53 55 56 59 65 73 81 88 89 84 79 81 88 89 88 88 86 82 79 77 79 79 79 77 74 68 60 56 50 40 30 24 23 23 23 25 27 30 33 36 39 40 40 40 41
85 87 87 78 75 78 82 95 104 103 102 103 101 99 91 90 93 86 79 76 77 87 94 92 91 90 90 91 88 88 90 83 86 96 94 91 81 70 67 58 54 56 55 58 62 66 72 76 79 80 78 81 89 91 89 86 81 78 77 76 78 78 77 75 71 63 57 53 45 33 26 22 22 22 23 25 28 31 35 38 40 40 42 42 40
93 95 90 86 83 84 93 102 105 103 102 101 101 101 98 95 96 91 83 76 74 80 85 87 89 91 92 91 88 85 84 80 85 96 96 93 87 80 75 66 60 60 60 63 65 68 73 76 83 88 88 87 91 90 86 82 78 76 75 75 76 76 75 73 66 59 55 49 38 28 23 21 21 22 23 25 28 33 36 40 41 43 44 42 38
97 101 96 92 92 95 102 104 103 103 103 103 103 104 102 98 94 90 84 79 79 81 80 79 83 88 89 88 87 82 80 80 85 95 96 93 93 86 80 73 66 64 67 71 71 72 77 83 89 94 94 91 87 84 81 79 77 75 74 75 75 74 73 69 62 57 51 42 31 24 21 21 21 21 23 25 30 35 39 42 45 46 44 39 36
95 101 103 100 98 101 103 102 103 103 103 103 103 104 103 95 88 89 89 85 86 88 83 78 78 82 83 83 83 79 79 83 86 92 92 91 94 91 85 79 71 68 69 73 75 75 78 84 90 92 90 85 81 78 77 77 75 74 75 76 75 74 71 64 58 53 44 33 25 22 21 21 22 22 24 27 33 38 42 45 48 46 41 36 36
99 99 102 100 101 103 103 101 101 100 101 102 103 103 102 95 88 90 97 96 92 91 88 84 84 86 86 83 81 78 81 86 87 86 84 86 93 94 88 82 75 71 72 75 77 79 81 82 85 88 86 81 79 78 77 76 74 75 77 77 75 72 67 61 55 46 35 26 22 22 22 22 23 25 27 31 36 41 45 48 47 42 38 38 41
106 102 99 99 104 104 101 98 96 97 101 103 101 97 95 94 90 90 98 104 101 96 93 93 93 93 92 88 82 80 82 85 84 78 76 83 93 93 87 83 77 73 77 81 78 80 83 83 84 84 83 82 80 80 79 77 76 77 78 77 74 70 65 58 49 39 28 23 22 22 23 24 25 28 31 35 40 45 49 48 43 39 39 43 47
107 106 103 102 105 102 100 99 98 101 104 103 100 95 92 94 93 88 92 103 105 99 97 98 97 97 96 92 83 79 81 84 80 74 76 86 94 91 87 84 78 75 82 87 83 80 81 85 88 85 85 86 84 83 82 80 80 80 79 75 73 70 61 48 37 30 24 22 23 23 24 25 28 31 35 40 45 49 48 44 42 43 45 47 47
107 108 106 104 104 101 101 103 103 104 103 101 100 97 94 92 90 87 91 104 105 96 95 98 99 99 96 88 81 78 81 83 81 79 84 93 95 91 86 83 78 78 84 89 88 84 80 85 90 89 89 89 88 86 85 85 84 81 78 74 75 69 49 33 27 24 23 23 24 25 26 27 30 33 38 45 50 48 45 44 48 51 51 49 49
107 105 105 105 104 103 103 104 103 101 98 98 97 95 90 86 89 93 99 108 104 92 94 102 103 100 92 84 80 80 85 86 85 86 91 96 96 90 84 81 79 77 82 90 92 86 82 84 89 91 91 91 91 89 88 88 86 81 78 79 80 65 40 27 25 23 23 24 26 27 28 30 32 36 43 49 49 45 44 49 56 57 54 52 52
109 106 104 103 105 105 104 103 100 99 99 97 94 91 85 84 91 100 106 108 104 97 101 107 106 98 88 82 81 85 90 90 87 87 88 93 94 88 83 80 75 74 81 90 90 85 85 88 92 92 91 92 92 91 90 90 87 79 75 80 77 58 38 30 25 24 25 26 28 30 30 32 35 41 47 49 46 44 47 56 62 60 56 52 51
109 108 104 102 104 106 104 102 100 101 99 93 89 87 84 87 95 104 107 106 105 104 105 105 104 97 89 84 85 91 93 90 86 84 85 91 93 88 83 78 74 77 85 88 86 87 91 95 96 92 89 91 90 89 89 91 86 72 62 65 63 49 37 30 25 25 27 28 30 32 32 35 39 45 47 45 43 45 53 61 62 57 51 48 48
109 109 105 103 105 104 102 100 100 101 96 89 89 92 94 99 104 106 107 107 106 105 103 102 104 99 91 89 92 95 94 89 85 85 89 96 97 90 84 81 80 84 87 88 88 93 97 99 96 89 88 89 86 85 89 92 86 65 48 48 47 40 33 28 26 27 28 30 32 33 35 38 43 46 44 41 42 50 60 62 55 48 44 44 48
110 110 103 100 104 103 103 103 103 101 95 94 98 102 104 105 105 106 109 108 104 104 102 102 106 99 92 95 98 97 92 85 84 91 99 104 103 95 86 83 83 88 91 89 92 98 100 98 92 88 88 86 83 85 91 93 82 58 41 38 36 33 29 27 26 28 30 32 33 35 38 42 45 44 41 41 49 59 64 57 48 43 42 45 48
108 109 102 100 104 102 102 103 101 100 99 102 105 107 107 107 106 106 109 107 104 106 104 101 101 94 92 99 99 93 87 85 91 100 104 105 102 93 85 83 85 88 87 85 91 98 98 96 90 85 84 83 86 88 86 80 66 49 39 34 31 29 28 27 28 29 31 33 35 38 40 43 43 40 39 44 53 58 55 49 45 43 44 46 49
108 106 103 102 102 101 100 96 94 98 102 106 109 111 110 107 107 107 107 106 107 108 104 99 95 89 91 98 95 89 86 88 96 100 102 104 97 84 77 76 77 79 81 86 96 99 96 93 87 83 83 85 89 85 73 64 56 45 36 31 29 29 27 28 29 31 32 35 37 40 42 42 40 39 40 45 48 46 45 45 44 44 45 47 49
109 106 102 98 99 103 99 87 86 96 105 107 108 111 109 105 106 109 108 106 106 104 99 95 90 85 90 95 93 89 87 90 94 95 102 108 101 90 85 82 82 86 92 99 103 98 90 87 85 86 86 85 87 77 63 60 57 44 33 29 29 29 29 30 31 32 34 37 40 42 42 40 39 39 41 42 41 41 44 45 45 45 46 47 49
109 105 102 98 101 106 94 82 91 103 108 108 106 106 107 103 104 106 105 104 102 99 95 90 85 86 94 98 94 89 87 89 87 88 99 108 107 103 100 99 98 99 100 102 102 93 84 84 88 90 85 84 84 71 58 59 56 41 30 30 30 30 31 32 33 35 37 39 41 42 41 39 39 40 40 40 41 44 46 47 47 47 47 49 49
Wind_Speed
20 20 22 20 17 15 16 16 17 18 16 14 15 16 16 16 16 17 17 17 17 19 23 25 25 24 23 24 25 26 26 26 25 23 22 21 21 21 20 21 21 20 19 19 19 19 19 20 21 21 22 23 23 24 24 24 24 24 23 22 22 22 22 22 22 22 21 20 18 16 15 15 15 15 15 15 14 15 15 16 17 17 18 17 17
22 23 22 19 17 17 17 17 17 18 17 16 16 16 16 16 17 18 19 18 18 20 23 25 25 24 23 24 24 26 26 26 25 24 22 21 21 21 21 21 21 20 19 19 19 20 20 21 22 22 23 23 24 24 24 24 24 23 22 21 21 22 22 22 22 22 22 21 20 18 17 15 14 14 14 15 15 16 16 16 17 17 17 17 16
25 25 22 19 19 19 19 19 19 19 19 18 17 17 17 18 19 19 19 19 20 22 23 25 25 24 23 24 25 26 27 27 26 25 24 22 21 22 21 21 21 20 20 20 20 21 21 22 23 23 24 24 25 25 25 25 24 23 22 20 20 22 22 23 23 22 22 22 21 20 19 17 15 14 14 15 16 18 18 17 17 17 17 17 17
26 25 22 20 22 23 23 22 21 20 21 21 19 19 19 19 19 20 20 21 22 23 23 24 24 23 23 23 25 26 27 27 27 26 25 23 22 22 22 22 22 21 21 21 22 22 23 24 24 25 25 26 26 26 26 25 24 23 22 21 21 22 23 23 23 23 23 23 22 22 20 19 17 14 14 16 18 19 19 19 18 19 19 19 20
26 25 24 23 26 26 24 23 23 22 22 22 21 20 20 20 20 20 22 23 24 24 24 24 24 22 22 23 24 26 28 28 28 27 26 24 23 22 22 22 22 22 22 22 23 24 24 25 26 26 27 27 27 27 27 25 23 22 23 23 23 24 25 24 24 24 24 24 23 23 22 21 19 17 15 16 18 21 21 21 21 21 22 22 22
28 28 27 28 29 27 24 24 25 24 23 22 21 21 21 21 21 22 23 24 25 26 26 25 24 22 21 22 24 26 28 29 28 27 26 25 25 23 23 23 23 23 23 23 24 24 25 26 26 27 27 28 28 28 27 25 23 22 24 25 25 26 27 26 25 24 24 24 24 23 23 23 22 20 17 17 19 21 23 24 24 24 25 26 26
29 29 29 31 31 29 28 27 26 25 23 21 21 22 22 22 23 23 23 25 26 27 27 26 25 23 21 21 23 25 28 30 29 27 26 26 25 25 24 24 23 23 23 23 24 25 26 27 27 27 28 28 28 28 27 26 24 23 24 25 25 25 26 26 25 25 24 24 24 24 24 24 23 22 20 19 19 21 24 27 28 29 29 30 31
32 32 31 33 32 31 32 33 30 28 24 22 22 22 23 23 23 22 22 25 26 27 27 27 26 24 22 21 22 24 27 30 30 28 26 26 26 26 25 24 24 24 23 24 24 25 27 27 28 28 28 28 28 28 27 25 23 22 21 23 24 25 26 25 25 24 25 25 25 25 25 25 24 24 23 22 21 21 23 26 29 31 33 34 36
33 32 34 35 34 33 34 35 34 31 26 24 23 23 23 22 22 21 22 24 25 26 27 27 26 25 23 22 22 24 26 29 29 28 26 26 25 26 26 25 25 24 24 24 24 26 27 28 28 28 28 27 26 26 25 23 21 19 20 23 26 27 27 27 25 24 24 25 25 26 27 27 26 26 25 25 24 23 24 25 27 29 32 34 37
35 34 35 37 36 37 36 35 35 32 29 26 25 24 23 22 22 21 22 23 25 26 26 27 27 26 24 22 22 23 26 28 28 28 27 26 25 25 25 25 25 25 25 24 25 26 28 29 29 28 27 25 24 23 22 20 19 19 21 24 26 27 28 27 26 24 24 24 25 25 26 27 28 28 27 27 27 27 27 27 28 30 31 33 36
41 38 37 37 38 38 36 34 34 32 30 29 27 26 25 25 24 23 23 24 26 27 27 27 27 26 24 23 22 23 26 27 27 27 27 27 26 26 26 25 25 25 25 25 25 26 28 29 29 28 25 24 22 21 20 19 19 20 23 24 25 26 27 26 26 25 25 25 26 27 27 27 28 29 29 29 30 30 30 30 31 33 34 36 37
41 39 38 39 38 38 36 35 35 33 32 31 30 29 28 28 28 27 26 26 27 28 28 28 28 26 25 24 22 23 25 26 26 27 27 27 27 27 26 26 25 25 25 25 26 26 28 29 29 27 25 24 22 22 21 21 20 21 24 24 24 25 25 24 24 24 25 26 27 28 29 28 28 28 29 30 31 31 32 32 33 34 36 37 39
40 39 38 39 39 39 38 37 36 36 36 34 32 31 31 30 30 28 28 27 28 29 29 28 28 26 26 24 21 22 25 25 26 26 27 27 27 27 27 26 25 25 25 26 26 27 28 28 29 28 27 25 24 24 24 24 24 24 26 26 25 23 22 23 23 24 25 26 27 28 29 29 29 29 29 29 30 31 31 30 31 35 39 42 46
40 39 37 37 37 39 39 38 36 37 38 35 34 33 32 31 30 29 29 28 28 29 29 29 28 26 26 24 22 23 25 25 26 26 26 27 27 27 27 27 26 26 26 26 27 27 28 28 29 29 28 28 27 27 28 28 28 27 28 27 25 22 21 22 25 26 28 28 29 29 28 29 29 30 30 30 31 31 31 32 38 45 47 49 51
44 41 38 35 33 36 37 37 36 37 38 36 35 34 33 31 30 30 29 29 29 29 30 29 28 27 26 24 23 24 25 25 25 26 27 27 28 28 28 27 27 26 26 26 27 28 28 28 29 29 29 28 29 30 30 29 29 29 28 27 25 23 22 23 27 30 31 32 31 31 29 28 28 29 30 32 34 35 37 41 48 52 50 51 53
46 43 41 38 34 35 35 36 37 37 38 36 36 35 34 32 31 31 30 29 28 29 30 29 29 27 26 26 26 26 26 26 25 26 27 28 29 30 30 29 28 27 27 27 28 29 29 29 29 30 30 29 30 31 31 30 29 29 29 28 25 24 24 26 30 32 34 35 34 34 33 31 30 30 31 32 34 37 41 45 49 50 50 51 52
45 45 43 40 38 38 37 37 38 38 38 36 36 35 34 33 31 30 29 28 28 29 29 29 29 28 28 29 29 28 27 26 26 26 28 29 30 31 31 31 29 28 28 28 28 29 29 30 30 31 31 30 31 32 32 30 29 30 29 28 26 25 26 29 32 34 35 37 36 37 36 36 34 33 34 36 37 39 41 43 46 47 49 50 51
46 46 44 42 40 40 40 39 38 39 38 36 35 35 34 33 30 28 27 27 28 29 29 29 28 28 28 29 29 28 28 27 27 27 28 29 31 33 33 32 31 30 29 29 29 30 30 30 31 31 31 31 32 32 33 32 31 30 29 28 26 26 28 31 33 35 37 38 38 39 39 39 38 38 39 40 41 43 44 44 45 46 48 49 50
47 46 45 45 43 42 43 42 40 39 38 38 37 36 34 32 30 28 28 28 29 29 30 29 29 29 29 29 28 27 28 28 28 28 29 30 32 34 35 34 33 32 31 30 30 30 30 31 31 32 32 32 33 33 33 33 31 30 29 28 27 27 30 32 34 36 39 39 40 41 41 41 42 42 43 44 45 45 46 46 46 47 48 49 49
48 46 45 45 44 44 45 44 43 40 39 38 38 37 35 31 29 28 29 29 29 30 29 29 30 30 29 29 28 28 28 29 29 29 30 32 34 35 36 36 34 33 33 32 31 31 31 31 32 32 33 33 33 34 34 33 31 30 29 29 29 30 32 33 35 38 39 40 41 42 42 43 44 46 46 46 46 48 48 48 47 47 47 47 46
48 47 45 45 45 46 46 46 44 42 40 38 37 37 34 31 29 29 30 30 30 29 29 30 31 31 30 29 30 29 29 30 30 31 32 34 35 36 37 37 36 34 34 33 32 32 32 32 33 33 33 33 34 35 35 33 32 31 31 31 31 32 34 35 37 38 40 41 43 43 43 44 46 48 48 48 47 49 49 48 47 46 46 45 44
47 46 44 44 45 46 46 46 45 43 40 38 38 36 33 31 30 30 30 30 30 30 30 30 31 32 31 32 33 31 31 31 31 32 33 35 36 37 38 37 36 35 35 34 33 33 32 32 33 34 34 34 35 36 35 34 33 33 33 33 33 34 36 37 38 39 41 43 44 45 45 46 48 50 49 49 48 49 49 47 46 45 44 43 42
47 46 44 43 44 44 44 44 44 42 40 38 38 35 32 31 30 30 30 30 30 31 31 31 32 33 33 34 35 34 32 31 31 32 33 35 37 38 38 38 37 36 35 35 34 33 33 33 34 34 34 35 36 36 36 35 34 34 35 35 35 36 37 37 38 41 43 45 46 47 47 48 50 51 50 50 49 50 49 47 45 44 43 42 42
48 47 45 43 43 44 43 43 42 41 39 38 37 35 32 31 30 30 29 30 31 31 31 32 33 33 34 35 36 35 34 32 32 32 33 35 37 38 39 39 38 36 35 35 35 34 34 34 34 35 35 36 37 37 37 36 34 35 36 36 36 37 37 39 41 43 45 47 48 49 49 50 51 51 51 50 50 50 49 46 45 44 42 42 42
49 49 47 45 44 44 43 42 41 40 38 38 37 34 32 30 30 30 30 30 31 32 32 33 33 34 35 36 36 35 36 35 34 34 34 35 37 39 40 40 39 37 36 35 35 35 35 35 35 35 36 37 38 38 38 36 35 36 37 37 37 38 39 41 44 45 47 48 50 50 51 51 51 51 51 51 50 50 49 47 45 44 43 42 42
46 47 46 44 43 42 42 41 40 39 37 37 36 35 32 31 31 31 31 31 32 33 34 34 34 35 36 36 36 36 36 36 36 37 36 36 37 39 40 41 40 38 37 36 35 36 36 36 36 36 37 38 38 38 37 35 35 37 37 38 39 41 43 44 46 47 49 50 51 51 51 51 51 50 50 50 50 50 49 47 45 44 43 43 43
46 45 45 44 43 42 40 40 40 37 36 36 35 35 34 33 34 33 33 34 35 36 36 36 35 36 37 37 38 37 36 36 38 38 38 37 38 39 41 41 41 39 37 36 36 36 37 37 36 37 37 38 39 38 36 35 36 37 38 40 42 44 45 46 47 49 51 52 51 51 51 51 50 50 50 50 50 49 48 46 45 44 43 43 43
47 46 47 46 45 44 42 41 40 37 35 35 34 34 35 35 35 35 36 38 39 38 38 38 37 37 38 40 40 38 36 36 38 38 38 39 39 39 41 41 41 40 38 36 36 37 37 37 37 37 38 38 39 38 36 36 37 38 40 43 45 45 46 47 50 52 52 52 51 51 51 51 50 50 50 50 49 49 47 45 44 43 42 42 43
49 48 48 47 47 46 44 42 40 37 36 34 34 34 36 37 37 38 39 40 41 39 38 38 38 38 40 40 40 37 36 36 37 38 39 39 39 40 40 41 41 40 38 37 36 37 38 38 38 38 38 38 38 37 37 37 38 40 42 45 46 46 48 50 52 52 52 51 52 52 52 52 52 52 51 50 49 48 46 44 43 42 42 43 43
51 49 48 48 48 47 45 43 41 39 38 37 36 36 37 39 40 41 41 41 40 39 38 37 37 38 39 39 38 37 35 35 37 38 39 40 40 39 40 41 41 40 38 37 37 38 39 39 39 38 37 37 38 37 38 38 39 41 44 46 47 48 50 52 52 52 51 51 52 53 53 53 53 52 51 50 49 48 45 44 43 42 43 43 44
54 51 49 49 47 45 45 43 42 41 40 40 39 39 39 41 42 42 41 40 39 38 37 36 37 37 37 37 37 37 36 35 37 38 39 39 39 40 41 41 41 40 38 37 37 38 39 40 39 37 36 37 38 39 39 39 40 43 46 47 49 50 52 53 53 52 51 52 53 54 54 55 54 52 51 49 48 47 45 43 43 42 43 44 46
54 51 49 47 45 43 42 43 43 43 42 42 42 42 42 42 43 42 41 40 39 38 36 35 36 36 36 37 38 38 36 36 36 36 38 38 38 39 40 39 39 38 37 37 37 38 38 39 38 36 36 38 39 40 40 41 42 44 47 49 51 52 53 53 53 52 52 53 54 54 55 55 54 52 50 49 48 47 45 44 43 43 44 45 47
52 49 48 46 44 42 41 42 44 44 44 45 45 45 44 44 44 44 43 41 40 39 37 36 36 36 37 38 39 39 38 37 36 36 37 36 36 36 36 35 35 36 37 37 38 38 38 38 37 37 38 39 40 41 42 42 44 47 50 51 52 53 54 54 53 53 53 54 55 56 56 55 54 52 50 49 47 46 45 43 43 43 45 46 48
51 49 47 46 44 43 41 42 45 46 47 47 46 46 46 45 45 46 45 44 43 41 40 39 38 38 39 40 41 41 40 38 36 36 36 35 34 33 33 33 34 35 36 37 38 38 39 39 39 39 40 41 42 42 43 44 46 49 52 53 53 54 54 54 54 54 54 55 56 57 56 55 53 51 50 48 47 46 45 44 44 45 46 48 49
52 50 48 46 45 43 42 43 46 48 49 49 48 48 48 47 47 48 48 47 46 44 43 42 42 41 42 43 43 43 42 40 38 37 37 35 33 33 33 33 34 35 36 37 38 39 40 40 41 42 42 43 43 44 45 47 49 51 53 54 54 55 54 54 54 55 56 56 57 57 56 54 52 50 49 48 46 46 45 45 45 46 47 48 49
55 52 49 47 45 43 43 45 48 50 51 51 50 50 50 49 49 51 51 51 50 47 45 44 44 44 45 45 44 44 43 41 39 38 38 36 34 35 35 35 35 36 36 37 38 39 40 41 42 42 42 42 43 44 47 49 52 53 54 55 55 55 55 54 55 56 57 57 58 57 55 53 51 50 49 47 46 45 45 45 46 47 48 49 49
56 53 50 48 46 44 45 47 50 51 52 53 53 53 53 52 52 54 54 54 52 50 47 46 45 46 47 46 45 45 44 42 41 40 39 38 37 38 38 38 38 38 37 37 38 39 40 41 41 42 42 42 44 46 49 51 53 54 55 55 55 55 55 55 56 57 58 59 58 57 55 53 51 50 48 47 46 45 45 46 47 48 48 49 50
57 54 52 50 48 47 49 50 51 53 54 55 56 56 55 55 55 56 57 56 54 52 50 49 48 48 48 48 46 46 45 44 42 41 40 40 40 41 42 42 42 41 40 39 39 39 40 40 41 42 43 45 47 49 51 53 54 55 56 56 56 55 56 57 58 59 60 60 58 56 54 52 51 50 48 47 46 45 45 46 47 48 49 50 51
60 57 56 54 53 53 54 55 56 57 57 58 58 57 57 58 57 57 57 57 55 54 52 51 51 51 50 49 48 46 45 44 43 41 41 41 43 44 44 44 45 44 43 41 40 40 40 41 42 44 46 48 49 51 52 54 55 56 56 56 56 56 57 58 59 60 61 59 58 56 54 52 51 50 49 47 46 45 46 46 47 48 49 50 51
64 61 60 59 59 59 59 60 61 61 60 60 59 59 59 59 59 57 56 57 57 55 53 53 53 53 52 50 47 46 44 44 43 42 41 42 44 46 46 46 47 46 44 42 41 41 41 42 43 46 48 49 51 52 54 55 56 57 57 56 56 57 58 60 61 61 60 59 57 55 53 52 50 50 49 48 46 46 46 46 47 48 49 50 50
64 65 64 63 63 63 63 64 64 64 63 62 61 60 60 59 59 57 56 56 57 55 54 53 52 52 50 48 46 44 43 43 42 42 42 43 45 46 47 47 47 46 44 43 43 42 42 43 44 46 48 50 52 53 55 56 57 57 57 57 57 58 60 61 61 60 60 58 56 54 53 51 50 49 49 48 47 46 46 46 47 48 49 49 50
61 65 66 67 67 67 67 67 67 66 64 63 62 61 60 59 58 56 55 56 56 53 52 52 51 50 48 46 45 43 43 42 42 42 43 44 46 47 47 47 46 45 44 44 44 44 44 44 45 47 49 51 53 55 56 56 57 57 57 57 58 59 61 61 61 60 59 57 55 54 52 50 50 49 48 47 47 46 46 47 48 48 49 50 50
58 60 63 65 66 67 67 67 66 65 64 62 61 60 59 58 56 55 54 54 54 51 50 50 49 48 47 45 44 43 42 42 42 43 44 46 47 47 46 46 45 44 44 44 45 45 45 45 46 47 50 52 54 55 56 57 56 57 58 58 58 60 61 61 61 60 58 56 54 53 51 50 49 48 47 46 46 46 46 47 48 49 50 51 51
57 57 58 59 61 62 63 62 61 60 59 59 58 58 57 55 53 53 52 53 52 51 50 49 48 47 46 44 43 43 43 43 44 45 47 47 48 47 46 46 45 44 44 44 45 45 46 47 47 48 51 53 55 56 56 56 56 57 59 59 59 61 61 61 61 59 57 55 53 51 50 49 48 46 45 45 45 45 46 47 49 50 51 52 52
58 57 57 56 56 58 59 58 57 56 56 56 56 55 54 53 52 52 52 51 51 51 50 48 46 45 44 44 43 43 44 44 45 47 48 48 48 47 47 46 46 45 44 44 44 45 46 48 48 50 52 53 55 55 55 55 55 58 60 60 60 61 62 61 60 57 55 53 52 51 49 48 46 45 44 44 44 45 46 47 49 51 52 53 53
57 57 57 56 56 56 57 56 55 55 54 53 53 53 52 51 51 51 51 51 51 51 49 46 44 44 44 44 44 44 45 46 47 48 48 48 47 47 47 46 45 45 44 43 43 45 47 49 50 52 53 54 54 54 54 54 56 60 61 60 61 61 61 60 58 56 54 52 51 50 48 47 45 45 44 44 45 46 47 48 50 52 52 53 54
57 58 58 57 56 55 54 55 54 53 52 50 50 50 49 49 49 50 50 50 50 49 47 44 44 44 44 44 45 46 47 48 48 48 48 47 46 46 46 45 44 43 42 42 44 46 48 50 52 53 53 53 53 53 54 55 58 60 61 60 61 61 60 58 56 54 53 51 50 49 47 46 45 45 45 46 47 47 48 50 51 52 52 53 55
58 59 58 57 58 56 54 53 53 52 50 49 48 48 48 48 48 48 48 48 47 47 45 44 44 44 44 45 46 47 47 48 47 47 47 46 45 44 43 43 42 41 42 45 46 48 50 52 52 52 52 52 53 53 54 56 59 60 61 61 60 60 58 56 54 52 51 50 49 47 46 45 44 45 46 47 48 48 50 51 52 52 53 54 56
60 59 59 59 59 57 56 55 54 51 50 49 49 48 48 48 47 47 47 46 46 46 45 44 44 45 45 46 47 47 47 47 47 47 46 44 44 44 44 44 43 44 47 49 49 50 52 52 52 52 51 52 53 53 55 57 59 60 61 61 60 58 56 54 52 51 50 49 48 47 45 44 44 45 46 48 49 50 51 52 52 53 54 56 57
60 60 61 61 59 58 59 58 55 52 51 51 50 49 49 48 47 47 47 46 46 46 45 45 46 46 47 48 48 47 46 46 46 46 44 42 42 43 44 45 46 48 49 50 50 51 52 52 52 52 52 53 53 54 57 59 60 61 61 59 57 56 54 53 51 50 49 48 47 46 45 44 44 45 47 49 50 51 52 52 53 54 56 57 57
61 60 61 60 59 60 62 59 54 53 53 52 51 51 50 49 48 48 47 47 47 46 46 46 47 47 48 48 47 46 45 46 46 45 43 41 41 42 44 46 47 48 49 49 50 51 51 51 52 53 54 54 54 56 59 60 61 62 60 57 55 54 52 51 50 49 49 48 47 46 45 44 45 46 48 49 51 52 53 53 54 56 57 58 58
Wind_Direction
280 288 291 288 279 285 301 305 307 305 300 302 309 315 319 317 317 320 321 321 317 317 324 329 332 335 336 337 342 345 346 344 341 336 332 328 325 324 326 328 329 330 330 329 328 328 327 327 325 324 323 322 322 323 325 326 325 322 317 314 312 314 317 321 324 322 316 307 300 298 296 295 294 293 289 281 267 250 239 234 231 232 234 238 242
280 287 288 283 277 284 294 299 305 306 302 301 306 312 317 318 319 321 322 320 316 316 322 326 330 334 335 338 342 345 346 345 342 338 334 330 326 324 325 326 327 329 328 328 327 327 327 326 326 325 325 325 325 326 327 327 326 323 318 314 311 312 315 317 320 323 323 317 308 300 297 296 296 296 292 281 264 247 237 234 234 236 240 246 250
285 288 285 280 278 281 288 294 300 302 302 302 304 310 314 319 320 320 319 317 316 317 321 325 329 332 334 338 342 345 346 345 343 340 336 331 327 326 326 326 326 327 326 326 325 326 326 326 325 326 326 327 327 328 329 328 326 324 321 317 314 313 314 315 315 317 319 320 318 310 301 296 295 297 294 281 262 247 240 238 239 241 246 253 256
292 289 283 282 282 281 283 289 296 299 299 300 300 305 313 319 320 319 317 316 316 318 322 325 328 330 333 336 340 343 345 345 344 341 337 332 328 326 326 325 326 326 325 325 325 325 326 326 325 325 326 327 328 329 329 327 326 324 321 320 318 317 315 313 311 311 312 315 319 318 312 302 295 294 293 284 265 249 244 243 243 246 251 256 258
291 287 282 286 289 284 281 287 295 298 297 296 296 299 309 316 318 317 316 316 317 318 321 325 327 327 330 334 338 340 342 343 343 342 338 333 328 326 325 325 325 326 326 327 327 327 326 326 325 325 325 326 327 328 328 327 325 322 318 317 318 318 316 312 308 306 307 310 313 316 317 314 304 295 291 286 272 257 251 249 248 250 255 259 261
284 281 280 285 290 284 281 290 297 297 294 294 294 296 303 309 313 315 314 315 315 316 318 323 325 325 327 331 335 337 338 339 340 341 338 333 329 325 324 324 325 326 327 328 329 328 327 326 325 326 325 326 327 327 327 326 324 319 315 314 316 317 315 314 310 305 303 304 307 310 312 315 314 306 296 287 280 269 261 258 256 256 259 262 264
278 279 278 282 286 281 281 290 295 295 293 293 295 295 298 302 308 311 311 313 314 315 316 320 322 322 324 328 332 334 336 337 336 338 338 334 329 325 323 323 324 325 327 329 330 328 326 325 326 327 326 326 326 327 326 325 323 319 317 318 321 321 318 317 313 308 304 301 302 304 306 308 310 311 306 296 287 279 272 268 266 265 265 267 269
275 278 277 279 281 278 280 286 288 290 293 296 296 295 296 300 305 307 310 313 314 315 317 318 320 320 321 325 330 333 334 335 334 334 336 334 329 325 323 322 322 323 325 327 328 328 326 325 327 327 327 327 327 326 326 325 323 323 328 331 335 335 331 325 319 314 309 305 301 300 300 301 302 304 305 302 296 289 282 278 275 274 274 275 276
272 275 277 277 278 279 280 282 284 285 288 296 299 298 297 300 304 306 310 314 315 316 318 318 319 318 319 323 328 332 333 334 333 331 332 334 331 326 323 321 320 321 322 324 326 326 325 325 327 328 327 328 328 327 327 328 329 333 338 338 339 342 340 336 329 323 317 312 306 302 298 297 297 297 297 298 297 294 290 287 284 283 282 283 284
263 267 273 275 274 276 279 280 283 283 284 292 299 300 298 299 301 303 308 313 315 315 318 319 319 319 318 322 326 330 332 333 332 331 330 331 331 328 324 321 320 319 320 321 324 325 324 325 327 328 328 329 329 328 329 330 333 336 337 335 336 338 338 336 333 329 326 322 317 311 305 299 295 293 293 292 292 292 290 289 288 287 287 286 286
259 261 266 269 269 270 273 279 283 282 283 289 296 299 298 297 297 299 303 309 313 314 316 318 320 319 317 320 324 329 331 332 331 331 329 330 330 329 325 321 319 318 318 319 321 322 322 324 327 327 328 329 328 327 326 326 329 331 333 334 335 336 337 335 331 327 326 324 321 317 312 306 299 293 289 288 288 288 288 287 287 286 285 285 285
259 259 262 264 266 267 268 275 281 282 283 286 293 297 297 295 295 295 299 305 312 315 315 316 319 319 317 319 323 327 330 330 331 330 330 329 329 329 326 322 319 318 317 317 318 320 320 322 325 326 326 328 326 324 323 322 322 324 328 331 334 336 338 340 338 334 329 325 322 318 315 311 305 298 290 287 286 286 286 285 284 284 284 283 283
256 256 259 262 266 268 270 273 277 281 282 284 290 294 296 295 293 294 298 303 310 314 315 315 318 319 318 319 321 326 328 328 329 330 330 329 328 328 326 322 318 316 316 315 315 316 317 320 322 323 323 323 323 321 321 320 319 318 319 324 330 333 337 343 345 343 340 336 331 326 319 313 308 302 295 290 287 286 284 282 284 288 286 283 283
248 251 256 262 266 268 273 275 275 278 279 282 287 292 295 293 291 292 297 303 308 311 313 315 317 318 319 318 319 324 327 326 327 329 330 329 328 327 325 322 318 315 314 313 312 313 314 317 319 320 321 320 319 319 319 319 318 316 315 317 323 326 330 337 340 340 339 337 337 334 328 320 313 305 298 293 289 287 282 280 288 292 288 284 283
244 245 250 259 266 268 271 273 274 277 278 281 285 290 292 289 289 291 296 303 307 310 311 314 316 318 319 316 315 321 325 324 325 327 329 328 327 326 324 321 317 314 312 311 311 311 312 314 316 317 318 318 319 319 319 319 318 316 315 315 317 317 317 323 329 331 333 332 332 331 329 325 319 312 305 297 292 287 282 282 289 292 289 286 285
244 244 248 255 262 267 268 270 273 275 277 280 285 288 288 286 287 290 295 301 305 308 310 312 313 316 318 315 312 316 321 322 323 325 327 327 326 325 323 320 317 314 311 311 310 310 311 313 314 315 316 317 318 319 319 319 317 315 313 312 313 311 309 313 318 323 326 326 326 326 326 323 319 315 312 308 302 295 289 288 291 292 291 290 289
243 244 248 251 256 262 265 268 270 271 275 280 284 286 285 284 287 290 294 299 304 307 308 309 310 313 316 315 312 312 316 319 320 322 325 326 325 325 323 321 317 314 311 310 309 310 310 312 313 314 315 316 317 317 318 318 316 313 310 309 309 308 308 310 315 318 321 322 322 322 323 322 320 316 315 314 312 309 303 299 297 296 295 295 295
242 244 246 248 254 259 263 266 268 268 272 279 283 282 281 282 285 288 293 299 303 305 305 305 306 310 314 316 312 309 312 315 317 319 323 325 325 324 324 322 319 315 311 309 309 309 310 312 312 312 313 314 315 316 316 317 316 312 308 308 309 309 310 311 314 316 319 320 320 320 321 323 323 321 319 318 317 316 313 309 305 303 301 299 299
244 247 249 250 253 257 261 264 267 268 271 278 282 280 278 280 283 286 292 298 300 302 303 302 304 308 312 315 313 308 310 313 314 316 319 322 323 322 322 322 320 316 312 309 309 309 311 311 311 312 312 313 313 314 315 317 316 311 309 309 309 310 311 312 314 316 319 319 319 320 321 323 324 324 323 321 319 317 316 313 309 307 305 303 302
245 248 252 253 253 256 259 262 266 269 273 278 281 279 278 279 281 284 290 294 296 298 298 298 302 305 308 314 314 308 308 310 311 312 315 319 320 320 320 321 320 317 312 309 309 309 310 311 311 311 311 312 312 313 315 317 315 310 308 309 310 311 312 313 315 317 318 318 319 320 321 322 324 325 324 322 320 318 317 314 311 309 307 305 305
245 248 251 253 254 255 258 261 264 269 273 277 279 278 278 279 280 282 287 290 293 293 293 293 297 301 304 311 315 310 306 307 308 309 312 315 318 319 318 319 319 317 312 309 309 309 310 310 310 310 310 310 311 312 314 315 313 308 308 310 312 313 313 314 315 316 317 318 319 320 320 321 323 324 324 322 320 319 318 315 313 311 309 308 307
245 247 249 251 254 255 257 260 264 268 273 275 275 275 277 279 279 280 283 287 289 289 290 290 293 297 299 306 313 313 308 305 306 308 310 313 315 317 317 318 317 316 313 309 308 309 309 310 309 309 309 310 310 311 312 313 311 307 309 312 314 314 314 314 315 315 317 318 319 320 321 322 323 324 323 322 321 321 319 316 314 313 311 310 309
244 245 247 250 253 255 258 262 265 268 271 273 272 271 274 278 278 279 281 284 286 288 289 290 291 293 296 302 309 311 309 306 305 308 309 311 314 316 316 317 316 315 312 309 308 307 308 309 309 309 308 309 309 310 311 312 310 308 311 314 314 314 314 315 315 315 316 318 320 321 321 322 323 323 323 322 321 322 320 316 315 314 312 311 310
242 245 247 251 254 256 260 263 265 266 268 271 269 268 273 276 278 279 281 284 285 287 289 290 292 292 293 299 305 308 308 307 307 308 308 309 312 314 315 316 316 314 311 309 307 306 307 308 308 307 307 308 309 309 311 311 309 309 313 316 316 316 316 316 315 316 317 318 320 321 321 321 322 322 322 322 321 321 320 316 315 314 312 311 310
243 246 247 250 254 256 259 261 263 265 267 268 266 266 271 275 277 279 281 284 286 287 288 290 291 291 292 296 302 306 307 307 308 308 307 307 309 311 313 314 315 313 310 309 307 305 305 306 307 307 307 308 309 310 310 311 310 311 315 318 319 318 317 317 316 317 318 319 320 321 321 321 321 321 322 322 320 320 319 316 314 313 312 311 310
247 249 249 250 253 255 257 259 262 264 266 267 264 264 269 272 275 277 279 284 288 289 288 289 289 289 291 295 300 304 305 306 307 308 307 306 307 309 310 311 313 313 310 309 306 305 304 305 306 306 306 308 309 310 310 310 311 314 317 319 320 319 318 317 317 318 319 320 320 320 320 320 321 322 322 321 319 319 318 315 314 313 312 311 311
249 250 249 249 251 253 255 258 261 262 265 267 264 262 267 271 273 274 277 285 290 290 288 288 288 289 290 293 298 302 303 304 306 307 306 306 306 307 307 308 311 312 310 308 306 304 303 304 305 305 306 308 309 310 310 311 313 315 317 319 319 318 318 318 319 320 320 320 320 320 320 320 321 322 322 320 318 317 316 315 313 312 312 312 311
249 250 249 249 250 250 253 256 259 260 264 267 265 264 267 271 273 274 279 287 291 289 287 287 288 289 290 292 295 299 300 302 305 306 305 306 305 305 305 305 309 311 309 307 305 303 302 302 303 305 307 308 310 310 310 312 314 315 316 318 318 318 317 318 319 319 319 319 320 320 320 320 321 321 321 319 317 316 315 313 312 312 312 311 311
252 252 251 250 250 250 252 254 255 259 263 266 268 268 270 272 273 276 282 288 292 290 287 286 288 289 290 291 293 296 299 302 304 305 305 305 304 305 304 304 306 308 307 305 304 302 301 301 302 304 307 308 310 311 311 312 314 315 316 318 318 317 317 318 319 319 319 319 319 320 320 320 320 320 320 318 315 314 313 312 312 312 311 311 311
253 253 253 253 251 251 253 253 253 258 262 266 270 272 274 275 275 278 283 288 292 291 287 287 288 288 289 290 293 295 299 302 303 304 304 303 304 305 305 304 305 306 305 303 302 302 301 300 301 304 306 308 310 311 312 312 313 314 316 317 317 316 316 317 318 319 319 319 319 320 320 320 320 319 318 316 314 313 313 312 312 312 311 311 310
251 252 253 253 251 250 253 254 254 257 261 265 269 273 276 278 277 279 283 288 293 292 288 287 287 288 289 291 293 296 297 301 303 303 303 303 305 307 306 304 303 303 303 302 302 302 300 300 301 304 306 308 310 312 312 312 312 313 315 316 316 316 316 318 318 319 319 319 319 319 319 320 319 318 316 315 314 313 313 313 312 312 311 310 309
249 251 252 251 248 249 253 255 255 258 261 263 268 273 276 279 280 280 283 287 291 291 288 287 287 288 289 292 294 296 296 300 303 302 302 305 308 309 307 304 302 302 302 302 302 302 301 301 302 304 307 309 310 311 311 311 311 312 314 315 316 317 317 318 318 318 318 318 319 319 319 319 318 317 316 315 314 313 313 313 312 311 310 309 309
249 249 249 248 247 250 255 257 257 258 259 261 266 271 275 279 280 281 282 285 289 289 286 285 286 287 289 291 294 295 296 300 302 301 303 307 309 308 306 304 302 302 302 302 302 302 303 303 304 305 306 308 309 309 310 310 310 312 313 315 316 317 318 318 318 318 318 318 318 319 319 318 317 316 316 315 314 313 313 313 312 311 310 310 310
248 248 249 248 248 252 256 258 257 258 258 259 265 270 274 278 279 281 282 284 288 287 285 284 284 286 288 290 293 295 296 299 301 301 303 306 306 305 304 304 303 303 303 302 302 302 303 304 304 304 305 306 307 308 309 309 310 312 313 315 316 317 318 317 317 317 317 318 318 319 318 317 316 316 315 315 314 313 313 313 312 311 311 311 311
249 250 250 250 251 253 257 258 257 257 257 259 265 270 275 277 279 281 282 284 286 286 284 283 282 284 286 289 291 293 295 298 300 300 301 302 300 300 302 304 303 302 302 302 303 303 303 304 304 304 304 305 306 308 309 309 310 312 313 315 316 317 317 317 316 317 317 318 318 318 318 317 316 315 314 314 314 313 313 313 313 312 312 312 312
250 251 252 253 254 256 257 257 256 256 257 260 265 271 275 276 278 280 282 283 285 284 282 282 282 283 285 287 289 291 293 297 298 298 299 297 294 294 297 301 302 301 301 302 303 304 305 305 305 305 304 305 306 308 309 309 311 312 313 314 316 316 316 316 316 316 317 317 317 317 317 316 315 315 314 314 314 313 314 314 313 313 312 312 312
249 251 253 254 255 255 253 254 255 256 259 262 267 272 274 275 277 280 281 283 284 283 282 283 283 283 284 286 288 290 292 296 297 296 296 295 291 289 292 297 300 300 300 302 304 306 307 306 305 305 306 306 307 308 309 310 311 312 313 314 315 316 316 316 316 316 316 316 317 317 316 315 315 315 315 314 314 314 315 314 314 313 312 312 312
249 250 251 252 252 251 250 252 255 257 260 263 267 270 273 274 277 279 281 282 283 283 282 283 283 284 284 285 287 289 292 295 296 294 294 293 290 289 290 294 298 298 298 301 303 305 307 307 306 306 306 307 307 308 308 310 311 312 313 314 315 315 315 316 316 316 316 317 317 317 316 315 315 315 315 314 314 315 315 315 314 313 312 312 313
249 250 250 250 251 251 252 254 257 260 262 264 267 269 272 274 276 278 279 280 281 281 281 282 284 285 286 286 287 289 292 294 294 293 292 292 291 290 291 293 296 297 297 298 302 304 306 307 307 306 306 306 307 308 308 310 311 312 313 314 314 315 315 315 316 316 316 317 317 316 316 316 316 316 315 315 316 316 316 315 314 313 313 313 314
246 248 250 250 251 252 255 258 260 262 264 265 267 269 271 272 274 275 276 277 278 279 280 282 284 285 286 287 288 290 292 292 292 292 292 292 291 291 292 293 295 296 296 297 300 303 305 307 307 306 306 307 307 308 309 310 311 312 313 314 314 314 315 315 315 316 316 317 317 316 317 317 317 316 316 316 317 317 316 315 314 313 313 314 314
242 244 247 249 251 254 256 258 260 261 263 265 267 268 270 271 272 273 274 274 275 277 278 280 282 284 286 287 288 289 291 291 292 292 292 292 292 292 293 293 294 295 295 297 300 302 304 306 307 306 306 307 307 308 309 311 312 313 313 314 314 314 315 316 316 316 316 317 317 317 317 317 317 316 316 317 317 317 316 315 314 313 314 315 315
243 243 245 248 251 254 255 257 258 259 261 262 264 266 268 269 271 272 272 272 273 275 277 279 281 283 285 286 288 289 290 291 292 292 292 292 292 292 292 292 292 293 295 297 299 302 304 306 306 305 306 307 308 309 310 311 312 313 314 314 314 315 316 317 317 317 316 316 316 316 317 317 317 317 317 318 318 317 317 316 314 314 315 315 314
245 245 246 248 250 252 253 254 255 257 259 260 262 264 266 268 270 271 271 271 273 274 276 278 280 282 284 286 287 289 290 291 291 292 292 291 291 291 291 291 292 293 294 296 298 301 303 305 305 305 306 307 308 309 310 312 312 313 314 314 314 315 317 317 317 317 316 316 316 316 317 317 317 317 318 318 318 317 317 315 314 314 315 315 314
244 244 245 247 249 250 251 253 254 256 257 259 261 263 265 267 268 269 269 270 272 273 275 277 279 282 283 285 287 288 289 290 291 291 291 290 291 291 291 291 291 292 294 295 297 300 302 304 304 304 306 307 308 310 311 312 313 314 315 314 314 315 316 317 317 316 316 316 315 316 316 317 317 318 318 317 317 316 315 314 313 314 314 313 313
244 244 245 246 249 250 250 252 253 255 256 258 260 262 264 265 266 267 269 270 271 272 274 276 279 281 283 284 286 287 288 289 290 290 290 290 290 290 290 291 292 293 293 295 297 300 302 303 304 305 306 307 309 310 311 311 312 314 314 314 314 315 316 316 316 315 315 315 315 315 316 317 317 317 316 315 315 313 313 313 313 313 313 312 312
244 245 245 246 248 250 250 250 252 253 255 257 259 261 263 264 265 266 267 268 270 272 274 276 279 280 282 284 286 287 288 289 290 290 289 290 290 290 290 291 292 293 294 296 298 300 302 303 304 305 307 308 309 310 311 311 312 314 314 314 314 314 315 315 315 314 314 314 315 315 316 317 317 316 315 314 313 312 312 312 312 312 312 312 313
243 244 245 246 248 249 249 250 251 253 254 256 258 260 261 262 263 265 266 268 270 272 274 277 279 280 283 284 285 286 288 289 290 290 289 289 290 290 291 292 293 294 295 298 300 301 302 303 304 306 307 308 310 311 311 311 312 313 314 314 314 314 314 314 314 314 314 314 315 316 316 316 315 314 314 313 313 312 312 312 312 312 312 313 313
242 244 246 247 248 249 250 250 251 252 254 255 257 258 260 261 263 264 267 269 271 273 275 276 278 280 282 283 284 286 288 289 289 288 287 288 289 290 291 293 294 295 297 300 300 301 303 304 304 306 307 309 310 311 311 311 312 312 313 313 313 313 313 313 313 313 313 314 315 316 315 315 314 314 314 313 312 313 313 313 312 312 313 314 314
241 244 245 247 248 250 251 251 251 252 254 255 256 257 259 261 263 265 268 270 271 272 274 276 277 279 281 281 283 285 286 287 287 286 286 287 288 289 290 292 294 295 298 299 299 301 303 304 305 306 307 309 310 310 312 312 312 312 312 312 312 312 312 312 313 313 314 314 315 315 314 313 313 314 313 312 312 313 313 313 313 313 314 315 315
241 243 245 247 249 250 251 251 251 253 254 255 256 257 259 261 264 266 267 268 270 271 273 275 276 278 279 280 281 282 283 284 284 285 286 287 287 289 290 292 293 294 296 297 298 300 303 304 306 307 308 309 310 311 312 312 312 312 312 312 312 312 312 312 313 313 314 315 315 314 313 313 313 313 313 312 313 314 314 314 314 315 315 316 316
240 242 244 247 248 249 251 252 253 253 253 254 256 257 259 261 264 266 267 268 269 271 273 275 276 278 278 278 279 280 281 281 283 284 285 286 286 286 289 291 292 293 294 295 297 301 303 304 305 306 308 309 310 311 312 313 313 313 313 312 312 312 312 312 313 313 314 315 314 313 313 313 312 312 312 313 314 315 315 315 315 316 316 317 317